Zurück zum Katalog

ARIANE 2 DEB

AktivGTO
NORAD 33567·DEBRIS·🇫🇷 France

Gestartet Jan 27, 1989 von Guiana Space Centre

Loading…

TLE

VeraltetSource: Space-Track

Epoche: Sep 11, 2026, 10:42 UTC

1 33567U 89006BK  26254.44608919 -.00000161  00000-0 -19803-3 0  9991
2 33567   8.6758 251.6161 7076094  79.6662   0.0968  2.26335205181169

Verfolge ARIANE 2 DEB in Echtzeit mit AllMySat

Download on the App Store